Hot Springs, VA

11:18 PM EDT on September 25, 2016 (GMT -0400)
Ingalls

Weather History for KHSP - April, 2014

Change the Weather History Date:

Wednesday, April 9, 2014

  Actual Average Record
Temperature  
Mean Temperature 40 °F -  
Max Temperature 46 °F 53 °F 77 °F (2001)
Min Temperature 35 °F 36 °F 17 °F (1997)
Degree Days  
Heating Degree Days 24    
Moisture  
Dew Point 30 °F    
Average Humidity 66    
Maximum Humidity 81    
Minimum Humidity 50    
Precipitation  
Precipitation 0.00 in - - ()
Sea Level Pressure  
Sea Level Pressure 29.92 in    
Wind  
Wind Speed 10 mph (WNW)    
Max Wind Speed 17 mph    
Max Gust Speed 28 mph    
Visibility 10 miles    
Events      
Averages and records for this station are not official NWS values.
T = Trace of Precipitation, MM = Missing Value Source: NWS Daily Summary

Daily Weather History Graph

Daily Weather History Graph

Search for Another Location

Airport or City:

Trip Planner

Search our weather history database for the weather conditions in past years. The results will help you decide how hot, cold, wet, or windy it might be!

Date:

Astronomy

Apr. 09, 2014 Rise Set
Actual Time 6:52 AM EDT 7:49 PM EDT
Civil Twilight 6:25 AM EDT 8:16 PM EDT
Nautical Twilight 5:53 AM EDT 8:48 PM EDT
Astronomical Twilight 5:21 AM EDT 9:21 PM EDT
Moon 2:41 PM EDT (4/9) 3:35 AM EDT (4/9)
Length of Visible Light 13h 50m
Length of Day
12h 57m
Waxing Gibbous, 71% of the Moon is Illuminated
Apr 9
Waxing Gibbous
Apr 15
Full
Apr 22
Last Quarter
Apr 29
New
May 6
First Quarter

Hourly Weather History & Observations

Time (EDT) Temp. Windchill Dew Point Humidity Pressure Visibility Wind Dir Wind Speed Gust Speed Precip Events Conditions
12:15 AM 39.2 °F 33.0 °F 32.0 °F 75% 29.77 in 10.0 mi West 9.2 mph - N/A   Clear
12:35 AM 39.2 °F 33.0 °F 32.0 °F 75% 29.77 in 10.0 mi West 9.2 mph - N/A   Clear
12:50 AM 39.2 °F 33.0 °F 32.0 °F 75% 29.77 in 10.0 mi West 9.2 mph - N/A   Clear
1:10 AM 39.2 °F 32.5 °F 32.0 °F 75% 29.77 in 10.0 mi WNW 10.4 mph - N/A   Clear
1:35 AM 39.2 °F 32.5 °F 32.0 °F 75% 29.77 in 10.0 mi WNW 10.4 mph - N/A   Clear
1:55 AM 39.2 °F 33.0 °F 30.2 °F 70% 29.77 in 10.0 mi WNW 9.2 mph - N/A   Clear
2:15 AM 39.2 °F 33.6 °F 30.2 °F 70% 29.77 in 10.0 mi WNW 8.1 mph - N/A   Clear
2:35 AM 39.2 °F 32.5 °F 30.2 °F 70% 29.77 in 10.0 mi WNW 10.4 mph - N/A   Clear
2:55 AM 39.2 °F 32.5 °F 30.2 °F 70% 29.76 in 10.0 mi WNW 10.4 mph 16.1 mph N/A   Clear
3:15 AM 39.2 °F 32.5 °F 30.2 °F 70% 29.76 in 10.0 mi NW 10.4 mph - N/A   Clear
3:35 AM 39.2 °F 32.5 °F 30.2 °F 70% 29.76 in 10.0 mi NW 10.4 mph 17.3 mph N/A   Clear
3:55 AM 39.2 °F 33.6 °F 30.2 °F 70% 29.76 in 10.0 mi NNW 8.1 mph - N/A   Clear
4:15 AM 37.4 °F 30.8 °F 30.2 °F 75% 29.76 in 10.0 mi NNW 9.2 mph - N/A   Clear
4:35 AM 37.4 °F 30.8 °F 30.2 °F 75% 29.77 in 10.0 mi NNW 9.2 mph - N/A   Clear
4:55 AM 37.4 °F 30.8 °F 30.2 °F 75% 29.77 in 10.0 mi NNW 9.2 mph - N/A   Clear
5:15 AM 37.4 °F 32.1 °F 30.2 °F 75% 29.77 in 10.0 mi NNW 6.9 mph - N/A   Clear
5:35 AM 37.4 °F 31.4 °F 30.2 °F 75% 29.78 in 10.0 mi NNW 8.1 mph - N/A   Scattered Clouds
5:55 AM 37.4 °F 31.4 °F 30.2 °F 75% 29.79 in 10.0 mi NNW 8.1 mph - N/A   Scattered Clouds
6:15 AM 37.4 °F 30.8 °F 30.2 °F 75% 29.80 in 10.0 mi NNW 9.2 mph - N/A   Clear
6:35 AM 35.6 °F 29.2 °F 28.4 °F 75% 29.81 in 10.0 mi NNW 8.1 mph - N/A   Clear
6:55 AM 35.6 °F 29.9 °F 28.4 °F 75% 29.82 in 10.0 mi NW 6.9 mph - N/A   Unknown
7:15 AM 37.4 °F 32.1 °F 28.4 °F 70% 29.84 in 10.0 mi NNW 6.9 mph - N/A   Clear
7:35 AM 37.4 °F 34.9 °F 28.4 °F 70% 29.84 in 10.0 mi NW 3.5 mph - N/A   Clear
7:55 AM 37.4 °F 33.8 °F 28.4 °F 70% 29.86 in 10.0 mi NNW 4.6 mph - N/A   Scattered Clouds
8:15 AM 39.2 °F 34.2 °F 26.6 °F 61% 29.87 in 10.0 mi NNW 6.9 mph - N/A   Clear
8:35 AM 39.2 °F 34.2 °F 26.6 °F 61% 29.88 in 10.0 mi NNW 6.9 mph - N/A   Clear
8:55 AM 39.2 °F 35.0 °F 28.4 °F 65% 29.88 in 10.0 mi NW 5.8 mph - N/A   Clear
9:15 AM 39.2 °F 35.0 °F 28.4 °F 65% 29.89 in 10.0 mi NW 5.8 mph - N/A   Scattered Clouds
9:35 AM 39.2 °F 33.6 °F 26.6 °F 61% 29.90 in 10.0 mi WNW 8.1 mph - N/A   Mostly Cloudy
9:55 AM 39.2 °F 35.0 °F 28.4 °F 65% 29.90 in 10.0 mi NW 5.8 mph - N/A   Overcast
10:15 AM 39.2 °F 34.2 °F 28.4 °F 65% 29.91 in 10.0 mi WNW 6.9 mph - N/A   Mostly Cloudy
10:30 AM 42.8 °F 38.6 °F 28.4 °F 57% 29.92 in 10.0 mi WNW 6.9 mph - N/A   Mostly Cloudy
10:55 AM 44.6 °F 39.7 °F 30.2 °F 57% 29.93 in 10.0 mi WNW 9.2 mph - N/A   Scattered Clouds
11:15 AM 42.8 °F 37.0 °F 30.2 °F 61% 29.94 in 10.0 mi West 10.4 mph - N/A   Mostly Cloudy
12:15 PM 44.6 °F 38.4 °F 33.8 °F 66% 29.95 in 10.0 mi West 12.7 mph - N/A   Overcast
12:35 PM 46.4 °F 40.1 °F 35.6 °F 66% 29.95 in 10.0 mi West 15.0 mph - N/A   Scattered Clouds
12:50 PM 46.4 °F 40.4 °F 35.6 °F 66% 29.95 in 10.0 mi West 13.8 mph - N/A   Mostly Cloudy
1:15 PM 46.4 °F 40.1 °F 35.6 °F 66% 29.95 in 10.0 mi West 15.0 mph 20.7 mph N/A   Mostly Cloudy
1:40 PM 44.6 °F 40.2 °F 33.8 °F 66% 29.94 in 10.0 mi WNW 8.1 mph 20.7 mph N/A   Overcast
1:55 PM 46.4 °F 40.4 °F 33.8 °F 62% 29.95 in 10.0 mi West 13.8 mph 23.0 mph N/A   Overcast
2:15 PM 46.4 °F 40.1 °F 32.0 °F 57% 29.95 in 10.0 mi WNW 15.0 mph 24.2 mph N/A   Mostly Cloudy
2:35 PM 44.6 °F 38.4 °F 30.2 °F 57% 29.95 in 10.0 mi NW 12.7 mph 20.7 mph N/A   Mostly Cloudy
2:55 PM 46.4 °F 42.9 °F 30.2 °F 53% 29.95 in 10.0 mi NW 6.9 mph 18.4 mph N/A   Overcast
3:15 PM 46.4 °F 39.5 °F 28.4 °F 50% 29.95 in 10.0 mi West 17.3 mph 26.5 mph N/A   Overcast
3:35 PM 46.4 °F 41.9 °F 28.4 °F 50% 29.95 in 10.0 mi NW 9.2 mph 18.4 mph N/A   Overcast
3:55 PM 44.6 °F 38.8 °F 33.8 °F 66% 29.96 in 10.0 mi NW 11.5 mph 19.6 mph N/A   Overcast
4:15 PM 46.4 °F 41.1 °F 33.8 °F 62% 29.97 in 10.0 mi NW 11.5 mph 17.3 mph N/A   Mostly Cloudy
4:35 PM 44.6 °F 40.2 °F 33.8 °F 66% 29.98 in 10.0 mi NW 8.1 mph - N/A   Mostly Cloudy
4:55 PM 39.2 °F 30.5 °F 33.8 °F 81% 29.99 in 10.0 mi WNW 16.1 mph 27.6 mph N/A   Light Drizzle
5:15 PM 39.2 °F 32.0 °F 33.8 °F 81% 29.99 in 10.0 mi WNW 11.5 mph 19.6 mph N/A   Overcast
5:35 PM 39.2 °F 32.0 °F 33.8 °F 81% 29.98 in 10.0 mi WNW 11.5 mph 17.3 mph N/A   Overcast
5:55 PM 42.8 °F 36.2 °F 33.8 °F 70% 29.99 in 10.0 mi WNW 12.7 mph 21.9 mph N/A   Mostly Cloudy
6:15 PM 42.8 °F 35.1 °F 33.8 °F 70% 29.99 in 10.0 mi West 16.1 mph - N/A   Scattered Clouds
6:35 PM 44.6 °F 37.8 °F 33.8 °F 66% 29.99 in 10.0 mi West 15.0 mph 20.7 mph N/A   Scattered Clouds
6:55 PM 44.6 °F 38.8 °F 33.8 °F 66% 30.00 in 10.0 mi WNW 11.5 mph 19.6 mph N/A   Clear
7:15 PM 42.8 °F 37.0 °F 33.8 °F 70% 30.01 in 10.0 mi WNW 10.4 mph - N/A   Scattered Clouds
7:35 PM 42.8 °F 36.2 °F 32.0 °F 66% 30.01 in 10.0 mi West 12.7 mph 18.4 mph N/A   Mostly Cloudy
7:55 PM 42.8 °F 36.2 °F 30.2 °F 61% 30.03 in 10.0 mi WNW 12.7 mph 21.9 mph N/A   Scattered Clouds
8:15 PM 42.8 °F 36.6 °F 30.2 °F 61% 30.04 in 10.0 mi WNW 11.5 mph - N/A   Scattered Clouds
8:35 PM 42.8 °F 36.2 °F 30.2 °F 61% 30.04 in 10.0 mi WNW 12.7 mph - N/A   Scattered Clouds
8:55 PM 42.8 °F 37.0 °F 30.2 °F 61% 30.05 in 10.0 mi WNW 10.4 mph 19.6 mph N/A   Scattered Clouds
9:15 PM 42.8 °F 36.6 °F 28.4 °F 57% 30.07 in 10.0 mi WNW 11.5 mph 17.3 mph N/A   Clear
9:35 PM 42.8 °F 35.8 °F 26.6 °F 53% 30.07 in 10.0 mi West 13.8 mph 19.6 mph N/A   Clear
9:55 PM 42.8 °F 38.0 °F 26.6 °F 53% 30.08 in 10.0 mi WNW 8.1 mph 17.3 mph N/A   Clear
10:15 PM 42.8 °F 38.0 °F 26.6 °F 53% 30.09 in 10.0 mi WNW 8.1 mph 18.4 mph N/A   Clear
10:35 PM 42.8 °F 37.5 °F 26.6 °F 53% 30.10 in 10.0 mi WNW 9.2 mph 17.3 mph N/A   Clear
10:55 PM 42.8 °F 37.0 °F 26.6 °F 53% 30.10 in 10.0 mi WNW 10.4 mph 18.4 mph N/A   Clear
11:15 PM 42.8 °F 37.0 °F 26.6 °F 53% 30.11 in 10.0 mi WNW 10.4 mph 18.4 mph N/A   Clear
11:35 PM 42.8 °F 38.0 °F 26.6 °F 53% 30.11 in 10.0 mi WNW 8.1 mph - N/A   Clear
11:55 PM 41.0 °F 35.8 °F 26.6 °F 57% 30.12 in 10.0 mi WNW 8.1 mph - N/A   Clear